Location: Moy Burn
(57.3833°N, 4.0667°W)
Time: 08:02:56
(UTC+00:00)

Cosmos 2333 - Pass Details

Date: 08 August 2020
Orbit: 829 x 866 km, 70.9° (Epoch: 18 September)

Event Time Altitude Azimuth Distance (km) Brightness Sun altitude
Rises 23:31:45 0° 323° (NW) 3,462 8.6 -16.1°
Reaches altitude 10° 23:34:13 10° 321° (NW) 2,522 7.7 -16.2°
Maximum altitude 23:40:00 70° 240° (WSW) 921 4.3 -16.3°
Enters shadow 23:43:21 26° 162° (SSE) 1,645 5.1 -16.4°
